Temp_Advection
nan nan nan nan nan nan nan nan nan nan nan nan nan nan nan nan nan nan nan nan nan nan
nan 0 0 0 -0 -0 -0 -0 -0 -0 -0 -1 -1 -0 -1 -1 -1 -2 -2 -1 -1 nan
nan -0 -0 1 1 0 -0 -0 -0 -0 0 -0 -0 -1 -1 -1 -1 -1 -2 -2 -1 nan
nan -0 1 1 1 1 0 0 0 0 0 0 -0 -0 -1 -1 -1 -1 -2 -2 -2 nan
nan 0 0 0 0 0 0 -0 -0 0 -0 -0 -0 -0 -0 -1 -1 -1 -2 -2 -2 nan
nan 0 0 0 0 0 -0 -0 -0 -0 -0 -0 -0 -0 -1 -0 -1 -0 -1 -2 -2 nan
nan 0 -0 -0 -0 -1 -0 -0 -0 -0 -0 -0 -0 -0 -1 -1 -1 -1 -0 -1 -2 nan
nan -0 -1 -0 -0 -1 -0 -0 -0 -0 -0 -0 -0 -0 -0 -1 -1 -1 -1 -0 -1 nan
nan -0 -0 -0 -1 -0 0 -0 -0 -0 -0 0 -0 -0 -0 -0 -0 -0 -0 -1 -1 nan
nan -0 -0 -1 -0 0 -0 -0 -0 -0 -0 -0 -0 -0 -0 0 -0 -0 -0 -0 -1 nan
nan -0 -1 -0 -0 0 -0 -0 -0 -0 -0 -0 -0 -0 -1 -0 -0 -0 -0 -0 -0 nan
nan 0 -0 -0 -0 -0 -0 -0 -0 -0 -0 -0 -1 -0 -0 -1 -0 -0 -0 -0 -0 nan
nan 1 0 -0 -0 -0 -0 -0 -1 -0 -0 -0 -1 -0 0 -0 -0 -0 -0 -0 -0 nan
nan nan nan nan nan nan nan nan nan nan nan nan nan nan nan nan nan nan nan nan nan nan
Wind_Speed
23 22 31 28 27 28 29 29 30 28 24 28 32 29 25 23 20 21 23 31 25 31
24 30 35 26 27 28 28 27 29 27 26 27 31 32 29 25 21 19 22 25 27 27
30 37 31 27 31 27 29 27 29 29 26 28 31 33 32 30 22 21 18 22 27 20
30 29 30 30 34 30 29 27 28 29 26 28 30 33 33 31 26 21 19 18 21 23
25 25 26 28 31 33 29 25 26 27 27 29 29 31 34 33 29 24 23 18 19 21
25 25 27 27 27 33 27 25 25 27 27 28 28 31 35 33 29 25 22 20 16 20
28 28 27 25 27 34 24 22 24 27 28 28 25 30 34 30 28 25 24 21 16 14
26 26 26 28 30 28 25 22 25 29 26 28 25 32 34 29 24 24 26 21 19 14
26 26 27 30 28 28 26 23 27 28 27 27 28 34 32 28 22 22 25 26 22 18
26 27 29 27 28 27 28 25 27 27 26 25 27 32 32 28 22 22 21 25 25 22
26 27 26 28 28 26 28 27 26 26 26 25 27 31 31 28 24 22 21 23 23 23
25 27 25 28 28 26 27 26 26 25 25 27 26 31 29 28 25 24 22 23 22 22
25 30 25 27 26 26 25 25 24 25 25 27 28 29 29 27 26 25 24 24 23 22
24 29 23 25 26 25 27 25 27 27 26 27 31 30 28 26 24 25 23 25 24 22
Wind_Direction
340 343 336 338 350 346 342 343 343 348 347 341 344 342 330 326 311 271 266 251 240 242
327 332 332 351 349 347 345 343 345 350 351 344 345 346 343 334 325 294 266 254 246 241
336 344 359 355 351 347 349 347 348 352 351 349 348 343 348 345 332 326 283 267 246 246
339 347 347 346 353 350 351 348 350 350 351 351 346 343 345 350 341 336 318 275 267 242
348 348 349 345 342 351 350 350 348 349 353 348 347 341 348 351 348 339 341 302 274 251
359 357 352 348 341 340 347 349 350 350 350 349 349 345 349 351 350 344 346 334 297 265
354 354 353 353 343 337 350 355 355 353 350 351 355 347 350 352 351 351 351 349 330 279
353 352 352 343 336 347 3 4 1 356 350 357 359 351 351 354 351 358 356 355 351 319
351 347 345 338 345 3 8 8 3 358 358 357 357 351 353 356 356 358 0 358 355 343
347 344 336 348 360 4 8 9 3 359 357 357 356 352 354 357 3 3 5 2 359 356
344 343 347 357 1 5 5 6 3 0 0 356 359 353 356 357 4 11 11 9 5 4
343 348 353 358 2 4 2 2 2 3 5 1 1 356 1 360 5 14 12 11 9 8
339 349 354 0 2 2 1 360 2 8 9 5 5 2 8 8 9 9 8 11 9 11
335 348 358 359 3 4 3 4 5 9 10 10 7 8 14 14 12 9 6 9 6 6
Height
1536 1528 1524 1518 1513 1509 1504 1500 1495 1490 1485 1480 1473 1466 1462 1457 1453 1451 1450 1452 1454 1457
1532 1527 1522 1517 1513 1508 1504 1499 1494 1488 1483 1478 1472 1466 1459 1453 1448 1445 1445 1444 1446 1448
1531 1526 1520 1517 1512 1507 1502 1497 1493 1487 1482 1477 1470 1464 1457 1450 1445 1440 1439 1439 1440 1442
1531 1525 1520 1515 1511 1506 1500 1496 1491 1486 1480 1476 1470 1462 1455 1449 1442 1436 1431 1431 1431 1434
1530 1526 1521 1515 1510 1506 1500 1495 1490 1485 1479 1474 1468 1461 1453 1446 1441 1435 1429 1425 1425 1427
1530 1525 1521 1516 1509 1504 1499 1493 1489 1483 1478 1472 1467 1460 1454 1447 1440 1434 1428 1424 1421 1420
1529 1525 1521 1516 1509 1503 1498 1493 1487 1482 1477 1472 1466 1460 1454 1448 1441 1434 1427 1421 1418 1416
1530 1526 1521 1514 1508 1502 1497 1493 1488 1483 1477 1471 1465 1460 1453 1447 1442 1435 1429 1423 1420 1418
1530 1524 1519 1512 1506 1502 1498 1493 1489 1484 1478 1472 1466 1459 1453 1447 1442 1437 1431 1424 1420 1417
1529 1523 1516 1510 1505 1502 1498 1494 1489 1485 1480 1474 1468 1461 1451 1445 1440 1436 1432 1426 1420 1414
1528 1522 1515 1510 1506 1501 1498 1493 1489 1485 1481 1475 1468 1462 1452 1445 1439 1435 1432 1429 1424 1418
1528 1521 1516 1511 1506 1502 1498 1494 1489 1485 1481 1475 1469 1461 1454 1447 1441 1435 1432 1430 1427 1422
1528 1522 1517 1512 1507 1503 1498 1494 1490 1485 1481 1476 1469 1463 1455 1449 1443 1437 1434 1431 1427 1424
1528 1523 1518 1513 1509 1504 1499 1494 1489 1485 1480 1475 1470 1463 1458 1452 1446 1441 1437 1433 1429 1426